Wind_Speed
13 14 15 16 17 18 20 21 21 22 22 20 21 19 17 14 12 16 15 14 12 10 8 7 2 7 4 7 5 22 16 20 12 13 22 6 8 4 4 3 4 5 5 6 8 12 9
11 13 13 14 16 17 19 21 21 21 21 19 20 17 17 12 9 8 11 11 11 8 10 7 4 3 3 6 8 19 10 15 19 15 18 12 2 4 1 3 5 4 8 8 6 6 5
11 12 12 13 15 17 19 20 20 20 21 18 19 17 16 11 9 7 6 8 8 13 10 6 4 8 13 5 10 23 8 13 12 13 3 9 8 5 1 3 1 8 5 5 1 3 4
11 12 12 13 15 16 18 19 19 19 21 17 18 16 14 10 8 7 7 8 6 3 4 4 4 7 4 1 11 28 18 7 8 8 5 8 5 4 4 1 0 4 5 4 1 1 1
11 12 13 14 14 16 18 18 18 19 20 17 16 16 11 8 9 8 5 7 6 5 8 5 5 7 2 3 11 24 14 11 14 6 7 3 5 5 8 4 4 6 2 1 1 5 2
11 12 13 14 15 17 18 18 17 18 19 18 14 15 13 1 3 3 9 9 13 2 3 2 6 5 7 6 12 22 12 16 5 8 5 9 6 5 5 6 2 2 3 4 3 4 6
10 11 12 13 14 17 19 19 18 18 19 19 15 13 14 2 5 6 3 8 3 6 16 5 2 4 2 16 3 23 20 14 7 7 6 7 10 5 5 5 4 2 2 3 3 3 1
10 10 11 12 14 16 18 18 19 19 20 19 14 14 12 3 4 4 3 6 4 5 7 9 8 5 4 8 5 20 22 7 8 5 4 7 4 2 4 7 6 3 4 5 4 5 6
10 11 11 11 13 15 17 17 17 18 19 19 13 13 10 3 2 7 8 7 8 5 5 2 3 3 4 6 4 9 10 5 6 6 8 6 1 4 1 6 5 4 2 3 4 7 6
10 10 11 12 12 14 17 17 18 18 20 21 14 13 10 2 2 2 4 8 4 2 4 0 2 4 4 3 4 4 11 1 5 4 5 6 5 3 5 3 3 3 2 4 7 7 3
10 10 10 11 12 14 16 17 18 20 21 23 16 11 9 8 2 3 1 5 1 1 3 3 2 1 4 6 3 6 14 7 4 4 1 0 2 4 3 2 1 5 8 10 7 5 4
11 11 11 12 12 13 15 17 18 19 20 21 15 10 10 3 5 3 2 4 1 4 4 2 1 3 3 4 4 5 6 7 2 3 6 3 2 3 2 5 4 5 6 11 2 3 1
13 13 13 12 13 14 15 17 18 20 21 22 13 6 9 3 1 2 5 2 3 4 1 1 1 2 4 3 2 4 4 6 4 2 3 1 2 2 1 2 2 8 5 3 5 3 5
15 15 14 14 15 17 16 17 19 20 21 21 11 4 3 8 1 5 2 3 2 2 1 2 2 2 2 1 1 2 4 2 5 3 2 2 4 4 1 2 1 2 2 4 5 3 5
18 17 16 16 15 14 19 19 19 21 24 20 8 4 2 9 2 6 4 2 4 3 2 2 2 1 1 2 1 3 2 3 1 2 3 2 4 2 2 2 3 1 3 4 2 4 2
20 20 18 18 17 17 16 18 21 20 21 24 8 3 3 6 3 3 4 3 4 2 1 1 5 1 3 3 2 2 6 2 4 1 3 1 5 4 3 1 3 3 3 2 2 2 5
26 24 22 19 19 18 19 19 19 21 20 16 7 3 2 2 3 4 2 3 2 1 1 3 4 4 3 4 4 3 3 0 5 3 1 3 3 2 2 5 6 1 1 2 2 4 4
31 30 26 22 22 19 18 19 20 20 21 9 3 3 1 2 3 2 2 3 2 3 2 2 1 2 4 5 4 4 6 2 5 6 3 4 4 3 4 2 2 2 5 4 3 6 3
33 34 29 25 24 22 20 19 19 16 16 9 2 3 1 3 2 2 2 1 1 4 3 2 1 1 0 5 2 4 4 5 7 5 4 4 2 3 2 1 4 2 4 5 3 2 8
21 21 32 26 25 25 22 21 19 15 11 7 1 3 3 4 1 5 5 4 3 1 3 2 3 2 2 3 2 3 3 4 6 3 5 4 3 6 5 3 3 4 6 6 5 3 5
14 11 17 21 22 25 24 24 22 15 10 5 2 4 3 2 2 2 4 7 5 5 2 5 2 6 6 5 4 4 4 3 3 6 5 4 4 4 8 8 6 7 13 9 11 10 7
20 16 14 19 21 27 27 29 25 16 9 4 3 2 1 2 1 5 3 7 8 4 7 5 5 9 6 5 6 6 6 6 5 4 5 3 3 2 6 10 11 13 13 10 12 10 6
17 19 20 18 15 17 20 22 28 20 12 3 2 5 3 2 4 4 5 6 8 9 1 0 6 5 5 4 4 4 5 4 5 8 7 4 3 2 4 4 7 8 5 4 3 2 3
23 19 18 19 19 18 19 23 20 22 16 11 4 4 2 5 4 6 5 3 5 5 6 2 2 4 3 6 4 5 3 1 2 3 5 3 2 2 4 3 3 5 2 2 1 4 4
24 24 20 20 21 18 16 20 18 21 19 18 6 5 3 4 4 2 6 5 6 5 3 3 3 1 9 3 2 2 1 1 3 4 5 4 3 2 2 2 6 4 1 1 2 4 1
24 24 25 25 22 21 17 17 21 19 17 18 15 10 1 1 5 2 4 4 4 3 2 2 2 3 3 2 2 4 4 3 3 1 2 4 3 4 1 1 4 4 4 4 4 4 2
29 27 24 25 25 21 21 14 22 20 18 18 10 16 5 2 2 4 2 4 6 3 3 4 4 2 0 3 3 4 3 2 4 6 5 3 3 9 8 4 6 3 5 3 1 3 2
28 29 28 26 25 22 18 22 19 19 18 19 8 15 13 3 0 5 7 1 2 4 4 5 4 2 2 3 3 2 2 4 2 3 5 6 5 4 3 3 7 6 3 5 4 2 2
28 28 28 27 25 24 21 28 23 21 20 23 7 13 15 6 3 6 4 4 3 3 4 3 2 3 5 3 1 3 1 1 4 3 0 2 5 4 7 4 3 5 4 3 4 5 3
Wind_Direction
50 47 44 40 39 31 26 23 22 19 18 17 14 14 17 26 43 57 65 65 55 61 93 133 181 346 63 51 43 339 357 9 21 33 36 12 36 23 44 69 39 98 120 81 105 83 82
48 45 44 38 33 30 25 22 20 20 19 18 14 15 16 27 46 59 55 42 37 79 84 74 31 26 44 77 347 346 360 15 22 38 33 36 334 287 329 82 74 99 113 117 94 93 139
38 39 38 36 30 26 23 22 21 19 16 17 16 15 15 32 45 46 36 36 63 111 68 57 34 36 66 139 13 8 14 31 24 28 34 15 2 63 298 96 341 145 96 91 65 132 125
26 27 28 28 27 23 21 19 20 19 16 17 19 17 15 35 49 49 55 58 70 95 26 57 49 76 94 352 339 7 14 13 39 17 30 3 22 88 48 355 154 172 136 161 318 19 198
16 17 19 19 20 19 18 18 18 18 16 16 18 22 21 52 71 56 59 52 41 56 51 31 39 103 60 342 4 352 357 336 334 348 10 2 59 62 15 32 28 8 258 73 0 40 9
10 12 13 13 13 12 12 14 16 16 14 13 10 13 11 289 19 1 89 88 34 98 33 71 32 58 20 340 334 353 1 347 287 330 2 27 42 61 21 31 197 291 351 344 15 359 3
3 5 10 10 9 8 8 10 13 14 13 10 9 8 8 43 349 358 290 285 13 6 35 89 314 95 9 334 48 2 351 337 30 44 25 25 57 49 21 24 353 325 293 268 296 99 314
355 360 3 5 7 7 8 8 9 10 10 9 10 6 7 37 13 40 74 84 95 141 85 57 91 76 22 348 19 349 4 53 45 37 353 33 79 341 328 37 10 337 291 288 278 12 3
351 351 356 360 2 4 6 6 8 7 6 4 5 5 3 5 62 44 88 115 114 140 91 33 85 64 305 39 51 334 13 346 62 58 46 101 188 287 348 37 17 360 17 351 283 336 290
350 350 347 350 355 359 2 3 4 4 4 2 359 4 4 9 122 99 78 133 111 104 89 54 314 4 348 119 72 356 3 186 55 98 99 82 353 358 78 80 34 315 17 310 311 354 273
347 345 342 342 346 353 359 0 1 4 5 2 359 360 10 35 40 58 129 183 64 101 14 35 41 344 36 74 284 349 29 29 75 59 85 185 53 35 78 209 68 257 311 284 251 235 323
342 344 342 339 341 345 351 355 357 359 0 1 1 354 6 8 35 32 103 150 109 47 264 59 84 5 116 33 27 328 29 36 42 80 40 114 79 86 246 281 234 296 300 308 163 149 322
323 332 339 339 334 334 339 347 350 352 354 355 357 8 28 33 148 101 132 83 32 138 107 136 134 49 120 35 40 26 76 29 52 57 38 40 135 178 342 352 21 26 7 348 359 1 237
306 315 323 333 334 331 332 339 344 347 349 349 349 3 34 29 48 154 138 68 190 115 192 195 178 199 129 129 223 19 133 58 13 44 65 36 300 176 300 143 195 286 109 143 252 267 271
295 300 306 315 323 329 328 332 341 345 343 346 334 323 295 359 146 165 90 84 228 197 160 170 161 177 183 224 136 116 76 147 111 45 117 34 240 132 146 219 165 268 100 158 157 223 28
286 293 297 303 311 318 325 326 332 343 344 338 325 286 264 351 142 133 82 211 188 131 135 186 210 194 202 184 176 125 179 184 156 70 64 129 310 189 204 115 321 108 176 88 52 303 286
280 281 286 293 298 308 316 322 328 336 342 340 314 341 194 351 139 59 184 192 137 133 150 181 198 179 166 178 173 221 156 352 146 183 2 133 125 323 96 207 170 121 235 195 185 155 203
276 277 279 283 289 294 304 315 322 335 341 346 346 319 319 144 47 36 139 138 116 167 265 209 196 123 177 168 204 213 186 115 139 143 183 191 164 251 255 6 84 146 176 153 137 275 227
277 274 268 278 278 286 291 301 311 327 339 335 318 243 212 283 226 159 202 55 56 155 187 205 188 308 269 181 219 155 138 149 141 163 172 169 232 325 229 301 352 142 216 212 224 173 226
287 295 279 269 280 278 284 288 295 305 320 323 340 313 319 54 332 138 159 200 206 252 148 133 147 109 114 215 240 176 143 183 163 171 149 140 218 202 211 211 184 206 213 212 185 206 251
303 300 285 287 288 282 281 284 282 286 298 283 173 239 194 250 259 171 158 158 155 213 239 174 174 203 173 194 183 212 147 137 174 209 156 143 241 229 264 265 255 236 260 244 236 237 216
305 308 300 294 264 274 271 272 270 266 245 276 274 190 287 169 171 133 174 217 194 161 156 229 212 186 192 191 201 178 152 169 178 198 154 184 269 289 275 263 267 267 264 248 232 231 241
301 304 295 294 299 291 283 287 271 250 231 165 334 358 332 161 164 143 218 207 194 147 244 329 182 133 180 188 123 120 94 106 137 155 182 185 205 9 265 312 333 303 233 194 211 148 181
287 286 297 302 288 291 295 288 276 254 226 175 159 113 95 283 236 200 180 141 159 181 151 172 116 145 160 118 92 54 42 17 156 199 165 154 96 165 273 346 276 248 116 118 148 261 279
290 289 281 286 297 303 298 289 276 251 225 205 195 148 154 247 229 276 146 113 88 77 95 112 48 129 147 94 105 130 31 12 241 213 210 162 123 274 263 209 287 330 255 194 132 273 96
286 291 291 289 285 295 298 282 258 244 217 208 184 192 246 131 238 19 151 163 139 128 111 98 47 102 106 166 175 193 216 178 180 120 69 167 140 153 349 211 262 229 164 95 104 280 143
274 278 288 290 290 286 296 265 239 237 210 192 152 177 156 121 326 337 211 181 135 131 135 137 165 171 202 158 197 202 225 137 183 182 172 162 225 216 229 249 272 187 153 109 126 257 327
277 277 278 285 288 284 279 252 241 227 197 183 156 177 162 149 315 341 357 59 125 140 162 153 100 236 139 175 172 214 153 219 108 196 178 166 164 194 180 236 267 159 101 173 212 190 193
277 278 273 278 282 282 279 233 222 213 194 168 129 153 158 116 120 58 56 36 344 320 130 169 185 155 168 127 184 112 161 116 164 248 219 256 189 186 175 217 181 187 205 207 162 168 231
Height
864 862 862 860 858 856 854 852 848 846 843 840 837 833 831 828 827 825 823 822 821 820 820 821 821 820 820 827 837 833 828 823 819 816 813 811 814 816 820 819 818 830 836 837 842 844 850
866 864 863 861 859 857 854 852 849 846 843 841 838 834 832 830 829 828 826 825 824 822 822 822 822 821 821 836 837 832 828 825 822 819 818 816 818 816 818 821 825 829 835 839 842 843 847
869 866 864 862 860 858 855 852 849 847 844 841 839 836 833 830 829 828 828 827 825 824 824 824 823 824 828 840 836 832 827 826 824 822 821 819 818 817 822 826 825 831 840 841 841 842 848
871 869 866 864 861 859 856 853 850 847 844 841 839 836 834 832 830 829 828 827 827 826 826 825 825 825 838 837 835 831 827 826 824 823 822 820 819 819 824 826 827 833 836 850 844 846 848
873 871 868 866 863 860 857 853 850 847 844 842 840 837 835 833 832 831 829 829 828 827 826 826 826 826 840 838 836 835 832 830 826 825 822 821 821 833 838 844 845 845 848 839 852 853 851
874 872 870 868 866 862 858 854 851 848 845 842 840 837 836 834 834 833 831 830 828 827 827 827 828 834 843 846 842 839 832 830 828 826 827 829 840 857 868 864 850 871 862 860 856 862 860
875 873 871 869 867 864 861 857 853 849 846 842 840 837 834 833 833 831 830 831 833 835 837 849 848 847 848 846 844 842 837 831 829 836 845 848 866 882 877 872 867 864 864 868 862 864 866
876 874 872 870 867 864 861 858 855 851 847 843 840 837 835 833 832 829 829 832 838 841 851 849 849 850 850 848 848 847 841 842 848 857 850 866 881 873 869 872 874 869 869 873 864 862 869
876 875 872 870 868 865 861 858 855 851 847 843 840 837 834 832 831 830 830 834 835 837 846 851 851 852 853 851 858 856 851 850 854 865 869 873 875 869 869 882 880 876 876 884 886 879 872
875 874 873 871 868 865 862 859 856 852 847 844 841 838 835 832 834 833 833 835 836 835 847 851 852 855 854 852 859 856 854 855 857 867 872 878 877 872 877 883 886 887 881 883 885 892 889
875 874 872 870 868 865 862 860 856 852 848 844 841 838 835 833 834 835 837 835 835 837 853 853 854 855 855 859 864 859 857 855 864 867 864 884 882 883 882 883 881 884 882 883 885 890 891
877 874 872 871 868 866 863 860 857 853 848 844 840 838 836 836 835 837 836 836 837 845 853 856 855 855 857 861 861 861 861 861 864 864 874 880 877 884 885 882 880 878 880 876 879 888 918
878 876 874 870 869 866 863 860 857 854 850 844 840 838 836 835 835 835 836 838 846 851 849 851 856 856 860 864 864 864 874 880 884 869 877 880 882 882 881 884 881 889 891 895 898 925 888
877 875 873 870 869 868 864 860 857 854 849 845 841 837 836 835 834 835 836 840 838 836 848 855 855 856 857 865 868 864 870 883 883 882 884 882 879 888 884 888 891 892 889 910 926 919 914
875 873 871 870 867 864 865 862 857 854 851 845 841 839 836 834 834 835 840 847 835 845 850 852 855 853 860 862 863 864 875 886 885 886 879 888 878 885 886 885 887 888 897 894 925 917 933
871 872 869 868 866 865 861 860 859 853 850 848 842 839 837 833 833 835 842 838 852 853 854 857 847 851 848 860 863 862 879 879 886 886 887 889 899 885 887 887 888 889 890 907 914 931 913
867 868 867 865 864 863 862 858 856 854 849 844 847 843 835 835 835 838 842 849 857 857 855 855 850 851 855 861 865 864 870 882 879 885 886 890 902 890 889 893 895 899 903 897 903 917 949
861 863 863 861 862 860 860 857 855 852 850 844 844 849 841 835 843 854 853 850 852 860 861 859 856 854 856 863 865 866 869 876 880 883 889 889 901 910 892 890 887 890 900 902 917 926 912
854 855 855 854 856 856 856 855 854 852 850 849 847 843 838 840 840 853 857 859 856 857 859 864 865 862 863 865 864 866 875 878 879 883 886 893 906 917 894 895 901 903 892 891 895 902 901
846 844 846 847 848 849 851 851 851 851 849 849 848 846 838 840 847 848 853 855 861 860 858 858 863 864 866 869 869 872 879 882 882 884 882 887 898 900 901 892 889 892 885 890 899 915 906
841 838 840 840 841 843 845 846 847 846 848 849 846 842 841 838 840 844 848 851 857 862 859 858 862 863 864 869 871 874 874 884 884 883 888 893 901 895 888 890 884 881 875 882 885 891 900
838 835 835 837 830 834 835 836 836 839 842 848 842 840 844 845 842 842 841 851 849 854 860 862 860 855 861 863 861 866 867 875 880 886 889 892 895 886 887 878 875 877 869 875 874 869 880
835 835 832 831 827 828 828 827 830 831 838 840 841 842 846 838 842 845 840 835 840 849 854 854 856 860 860 861 865 869 870 872 873 884 891 890 896 898 894 875 877 891 880 872 872 865 872
832 829 826 824 823 822 823 823 819 824 831 833 839 840 848 844 840 832 832 834 840 845 850 855 856 858 866 864 866 870 871 870 872 874 880 887 897 895 898 885 907 879 873 870 870 870 872
827 826 822 822 820 814 815 818 814 817 820 825 836 839 842 845 838 835 834 839 844 850 855 856 861 861 863 866 870 870 878 874 873 877 880 883 901 899 902 903 876 886 875 875 875 874 880
819 819 818 817 813 813 810 811 809 808 813 822 823 834 842 844 832 832 835 837 845 853 858 862 862 862 863 864 862 865 860 860 878 881 880 883 889 903 897 907 892 884 879 878 881 892 880
812 811 811 810 809 807 806 802 802 804 803 812 819 825 834 840 841 840 835 835 836 849 857 860 863 864 863 864 860 860 862 862 867 876 885 890 897 892 894 899 886 876 877 877 881 879 879
803 803 804 803 804 802 801 801 793 799 796 805 814 815 822 833 842 843 840 837 837 841 850 855 861 863 866 867 865 863 879 875 883 872 881 886 893 892 895 890 890 876 880 886 882 877 877
795 796 796 796 796 795 795 794 789 792 788 791 810 815 817 825 834 838 842 841 840 841 843 848 848 848 851 858 868 871 872 888 880 882 866 880 875 886 885 873 868 871 871 873 876 879 878